User: anonymous   Login
Location: Unspecified
(0.0000°N, 0.0000°E)
Time: 14:31:04
(UTC+00:00)
Language:

COSMOS-2408 - Orbit

View from above orbital plane
View from above orbital plane
View from above satellite
View from above satellite

Ground track
Ground track

The orbit data is extracted from the following two-line orbital elements,

1 28419U 04037A   18267.68970296 +.00000010 +00000-0 +13641-5 0  9990
2 28419 082.4823 293.8543 0015300 339.8061 123.0880 12.45613286636663
Epoch (UTC): 24 September 2018 16:33:10
Eccentricity: 0.0015300
inclination: 82.4823°
perigee height: 1471 km
apogee height: 1495 km
right ascension of ascending node: 293.8543°
argument of perigee: 339.8061°
revolutions per day: 12.45613286
mean anomaly at epoch: 123.0880°
orbit number at epoch: 63666

The dashed part of the orbit path shows where the satellite is in the earth's shadow,  

DLR